Location: Windsor
(43.2292°N, 89.3015°W)
Time: 10:13:15
(UTC+00:00)

Tiros 1 - Pass Details

Date: 30 May 2022
Orbit: 629 x 663 km, 48.4° (Epoch: 04 July)

Event Time Altitude Azimuth Distance (km) Brightness Sun altitude
Exits shadow 05:46:48 69° 66° (ENE) 677 7.2 -25.0°
Drops below altitude 10° 05:50:53 10° 65° (ENE) 2,018 9.9 -25.0°
Sets 05:53:13 0° 65° (ENE) 2,932 10.8 -25.0°
